Slidell, LA

9:03 AM CDT on September 28, 2016 (GMT -0500)
Slidell

Weather History for KASD - May, 2014

Change the Weather History Date:

Tuesday, May 27, 2014

  Actual Average (KNEW) Record (KNEW)
Temperature  
Mean Temperature 78 °F 79 °F  
Max Temperature 88 °F 87 °F 94 °F (1982)
Min Temperature 70 °F 71 °F 54 °F (1961)
Degree Days  
Heating Degree Days 0 0  
Month to date heating degree days 0  
Since 1 July heating degree days 1279  
Cooling Degree Days 14 14  
Month to date cooling degree days 303  
Year to date cooling degree days 560  
Growing Degree Days 28 (Base 50)    
Moisture  
Dew Point 69 °F    
Average Humidity 72    
Maximum Humidity 90    
Minimum Humidity 51    
Precipitation  
Precipitation 0.00 in 0.17 in 0.87 in (1975)
Month to date precipitation 3.88  
Year to date precipitation 23.49  
Snow  
Snow 0.00 in - - ()
Month to date snowfall  
Since 1 July snowfall  
Snow Depth -    
Sea Level Pressure  
Sea Level Pressure 30.03 in    
Wind  
Wind Speed 6 mph (South)    
Max Wind Speed 21 mph    
Max Gust Speed 23 mph    
Visibility 9 miles    
Events Rain , Thunderstorm    
T = Trace of Precipitation, MM = Missing Value Source: NWS Daily Summary

Daily Weather History Graph

Daily Weather History Graph

Search for Another Location

Airport or City:

Trip Planner

Search our weather history database for the weather conditions in past years. The results will help you decide how hot, cold, wet, or windy it might be!

Date:

Astronomy

May. 27, 2014 Rise Set
Actual Time 5:59 AM CDT 7:53 PM CDT
Civil Twilight 5:32 AM CDT 8:20 PM CDT
Nautical Twilight 4:59 AM CDT 8:53 PM CDT
Astronomical Twilight 4:25 AM CDT 9:28 PM CDT
Moon 5:14 AM CDT (5/27) 7:01 PM CDT (5/27)
Length of Visible Light 14h 48m
Length of Day
13h 54m
Waning Crescent, 1% of the Moon is Illuminated
May 27
Waning Crescent
May 28
New
Jun 5
First Quarter
Jun 12
Full
Jun 19
Last Quarter

Hourly Weather History & Observations

Time (CDT) Temp. Heat Index Dew Point Humidity Pressure Visibility Wind Dir Wind Speed Gust Speed Precip Events Conditions
12:36 AM 72.0 °F - 68.0 °F 87% 30.09 in 9.0 mi Calm Calm - N/A   Mostly Cloudy
12:53 AM 72.0 °F - 68.0 °F 87% 30.09 in 9.0 mi Calm Calm - N/A   Scattered Clouds
1:53 AM 71.1 °F - 68.0 °F 90% 30.06 in 8.0 mi Calm Calm - N/A   Clear
2:53 AM 71.1 °F - 66.9 °F 87% 30.07 in 8.0 mi Calm Calm - N/A   Clear
3:53 AM 70.0 °F - 66.9 °F 90% 30.06 in 8.0 mi Calm Calm - N/A   Clear
4:53 AM 70.0 °F - 66.9 °F 90% 30.07 in 8.0 mi Calm Calm - N/A   Clear
5:53 AM 70.0 °F - 66.9 °F 90% 30.07 in 7.0 mi Calm Calm - N/A   Partly Cloudy
6:53 AM 71.1 °F - 68.0 °F 90% 30.07 in 6.0 mi Calm Calm - N/A   Clear
7:53 AM 78.1 °F - 72.0 °F 81% 30.08 in 9.0 mi SSE 3.5 mph - N/A   Scattered Clouds
8:53 AM 82.0 °F 85.9 °F 70.0 °F 67% 30.06 in 10.0 mi South 13.8 mph 20.7 mph N/A   Partly Cloudy
9:53 AM 84.0 °F 88.4 °F 70.0 °F 63% 30.07 in 10.0 mi SSE 12.7 mph - N/A   Scattered Clouds
10:08 AM 84.0 °F 88.4 °F 70.0 °F 63% 30.06 in 10.0 mi SE 11.5 mph 20.7 mph N/A   Mostly Cloudy
10:28 AM 84.0 °F 87.8 °F 69.1 °F 61% 30.06 in 10.0 mi SSE 11.5 mph 23.0 mph N/A   Mostly Cloudy
10:53 AM 84.0 °F 87.8 °F 69.1 °F 61% 30.07 in 10.0 mi South 17.3 mph - N/A   Scattered Clouds
11:53 AM 84.9 °F 88.8 °F 69.1 °F 59% 30.06 in 10.0 mi SE 15.0 mph 20.7 mph N/A   Mostly Cloudy
12:53 PM 86.0 °F 92.2 °F 72.0 °F 63% 30.04 in 10.0 mi SSE 13.8 mph 23.0 mph 0.00 in   Scattered Clouds
1:53 PM 82.0 °F 86.3 °F 71.1 °F 69% 30.03 in 10.0 mi West 5.8 mph - 0.00 in Rain Light Rain
2:26 PM 87.1 °F 89.9 °F 66.9 °F 51% 30.02 in 10.0 mi South 16.1 mph 23.0 mph 0.00 in   Scattered Clouds
2:53 PM 87.1 °F 91.3 °F 69.1 °F 55% 30.01 in 10.0 mi South 13.8 mph 23.0 mph 0.00 in   Partly Cloudy
3:53 PM 84.9 °F 88.2 °F 68.0 °F 57% 29.99 in 10.0 mi South 17.3 mph 23.0 mph N/A   Scattered Clouds
4:53 PM 82.9 °F 85.8 °F 68.0 °F 60% 29.99 in 10.0 mi South 20.7 mph - N/A   Mostly Cloudy
5:53 PM 84.0 °F 87.8 °F 69.1 °F 61% 29.98 in 10.0 mi South 12.7 mph - 0.00 in   Clear
6:53 PM 82.9 °F 85.8 °F 68.0 °F 60% 29.98 in 10.0 mi South 11.5 mph - N/A   Clear
7:53 PM 80.1 °F 82.9 °F 69.1 °F 69% 29.96 in 10.0 mi South 11.5 mph - N/A   Clear
8:53 PM 80.1 °F 83.2 °F 70.0 °F 71% 29.96 in 10.0 mi South 8.1 mph - N/A   Clear
9:53 PM 79.0 °F - 70.0 °F 74% 29.99 in 10.0 mi South 9.2 mph - N/A   Clear
10:53 PM 80.1 °F 83.8 °F 72.0 °F 76% 29.99 in 10.0 mi South 10.4 mph - N/A   Clear
11:10 PM 80.1 °F 83.8 °F 72.0 °F 76% 29.98 in 10.0 mi South 9.2 mph - 0.00 in Rain , Thunderstorm Light Rain
11:34 PM 79.0 °F - 72.0 °F 79% 29.97 in 10.0 mi South 11.5 mph - 0.00 in   Scattered Clouds
11:53 PM 79.0 °F - 71.1 °F 77% 29.97 in 10.0 mi South 9.2 mph - 0.00 in   Scattered Clouds